[[[{"header":{"parameterUnit":"kt","parameterCategory":2,"dx":1,"dy":1,"la1":30.253999710083008,"la2":30.299108505249023,"lo1":-89.0895004272461,"lo2":-89.04439544677734,"nx":28,"ny":28,"refTime":"2022-10-14T21:00:00:Z","depth":0,"parameterNumber":1,"parameterNumberName":"U-component_of_WINDS"},"data":[-5.4599,-5.4729,-5.4732,-5.4882,-5.491,-5.5013,-5.5051,-5.51,-5.514,-5.5265,-5.5337,-5.5353,-5.5394,-5.5482,-5.5561,-5.5566,-5.5599,-5.5645,-5.5643,-5.5437,-5.5408,-5.5381,-5.5349,-5.5652,-5.5653,-5.5856,-5.5858,-5.586,-5.4453,-5.4482,-5.4561,-5.464,-5.4709,-5.4667,-5.4726,-5.4786,-5.488,-5.493,-5.5,-5.511,-5.5197,-5.5222,-5.5307,-5.5369,-5.5353,-5.5391,-5.5386,-5.5393,-5.5173,-5.5139,-5.5403,-5.5403,-5.5403,-5.5403,-5.5403,-5.5402,-5.4187,-5.4265,-5.4312,-5.4398,-5.4438,-5.4491,-5.4566,-5.4582,-5.466,-5.4747,-5.4734,-5.4839,-5.4889,-5.499,-5.5024,-5.5108,-5.5065,-5.5107,-5.5117,-5.5128,-5.514,-5.4847,-5.5122,-5.5121,-5.5121,-5.512,-5.5119,0,-5.3992,-5.3989,-5.4064,-5.4141,-5.4203,-5.4262,-5.4317,-5.4363,-5.4354,-5.4419,-5.4512,-5.4567,-5.4675,-5.4763,-5.4841,-5.4867,-5.4828,-5.4825,-5.4853,-5.486,-5.4859,-5.4861,-5.4502,-5.4816,-5.4813,-5.4811,-5.481,-5.4809,-5.3724,-5.3813,-5.3863,-5.3916,-5.3944,-5.403,-5.4081,-5.4065,-5.4121,-5.4185,-5.4255,-5.4343,-5.4412,-5.4563,-5.4579,-5.466,-5.4641,-5.4761,-5.4652,-5.4657,-5.4642,-5.4637,-5.4646,-5.4781,-5.4785,-5.4787,-5.479,0,-5.3573,-5.3573,-5.3711,-5.375,-5.3762,-5.3858,-5.3891,-5.3968,-5.3974,-5.408,-5.4104,-5.4113,-5.4205,-5.4202,-5.4306,-5.4302,-5.4461,-5.4442,-5.4445,-5.444,-5.4547,-5.4537,-5.4894,-5.4941,-5.4627,-5.463,-5.4632,0,-5.3343,-5.346,-5.3453,-5.3533,-5.3664,-5.3643,-5.3774,-5.3791,-5.3831,-5.3914,-5.3869,-5.3948,-5.393,-5.401,-5.4004,-5.4133,-5.4152,-5.4156,-5.4153,-5.416,-5.4159,-5.4186,-5.4171,-5.4141,-5.4139,-5.4138,-5.4136,0,-5.3104,-5.3237,-5.3368,-5.3397,-5.3449,-5.3511,-5.3536,-5.3578,-5.3628,-5.3692,-5.3724,-5.38,-5.3842,-5.3902,-5.3892,-5.3818,-5.405,-5.3947,-5.4053,-5.4054,-5.4102,-5.4099,-5.4419,-5.4134,-5.4133,-5.4133,-5.4132,0,-5.2916,-5.298,-5.3169,-5.321,-5.3245,-5.3331,-5.3403,-5.3476,-5.3524,-5.3525,-5.3574,-5.3542,-5.3653,-5.3552,-5.3706,-5.3613,-5.3658,-5.3671,-5.3678,-5.3686,-5.3571,-5.3751,-5.4057,-5.4088,-5.3697,-5.3694,-5.3691,0,-5.2645,-5.2833,-5.2815,-5.2994,-5.308,-5.3021,-5.3117,-5.316,-5.3168,-5.3242,-5.3251,-5.3336,-5.3259,-5.3284,-5.3362,-5.3374,-5.3495,-5.3357,-5.3466,-5.3471,-5.3454,-5.3736,-5.3781,-5.3991,-5.3644,-5.3649,-5.3652,0,-5.2432,-5.249,-5.2523,-5.2555,-5.2607,-5.2678,-5.2788,-5.2866,-5.2917,-5.297,-5.3061,-5.318,-5.3127,-5.3169,-5.3149,-5.3229,-5.3412,-5.316,-5.3161,-5.3206,-5.362,-5.3663,-5.3698,-5.3382,-5.3387,-5.3392,-5.3616,0,-5.2148,-5.2241,-5.233,-5.2401,-5.2455,-5.2566,-5.2557,-5.2615,-5.259,-5.2594,-5.2727,-5.2759,-5.2838,-5.2876,-5.2851,-5.3037,-5.3004,-5.2945,-5.2843,-5.3028,-5.3102,-5.3132,-5.2735,-5.2732,-5.2729,-5.2727,0,0,-5.1887,-5.2018,-5.1992,-5.2095,-5.2138,-5.2072,-5.2191,-5.2226,-5.2297,-5.2328,-5.2272,-5.2443,-5.2471,-5.2633,-5.2691,-5.2723,-5.2755,-5.2689,-5.294,-5.2964,-5.2986,-5.3065,-5.3096,-5.2722,-5.2721,-5.2721,-5.272,0,-5.178,-5.1809,-5.1926,-5.196,-5.2009,-5.2006,-5.2035,-5.2071,-5.2079,-5.2208,-5.215,-5.2229,-5.2365,-5.2402,-5.2438,-5.2671,-5.2621,-5.2695,-5.2823,-5.2915,-5.2942,-5.2966,-5.3049,-5.3079,-5.2713,-5.2714,-5.2714,0,-5.1568,-5.1595,-5.1649,-5.1743,-5.1773,-5.1862,-5.1754,-5.1852,-5.1917,-5.1837,-5.1965,-5.1982,-5.2029,-5.2183,-5.2252,-5.2202,-5.25,-5.2404,-5.242,-5.2426,-5.2514,-5.2547,-5.2576,-5.2191,-5.2189,-5.2187,0,0,-5.1477,-5.1561,-5.1582,-5.1718,-5.1742,-5.1738,-5.1784,-5.1762,-5.1805,-5.1823,-5.184,-5.1885,-5.1964,-5.2016,-5.2089,-5.2259,-5.2267,-5.234,-5.2364,-5.2384,-5.2402,-5.2495,-5.2528,-5.2181,-5.2181,-5.218,0,0,-5.1433,-5.1461,-5.1427,-5.1584,-5.1627,-5.1655,-5.174,-5.1698,-5.1762,-5.1748,-5.1715,-5.1725,-5.1868,-5.1885,-5.1797,-5.2052,-5.1951,-5.1972,-5.2035,-5.2066,-5.209,-5.2082,-5.1687,0,0,0,0,0,-5.1316,-5.1458,-5.1426,-5.1451,-5.1566,-5.1673,-5.1688,-5.1663,-5.1593,-5.1661,-5.1669,-5.1613,-5.1831,-5.1752,-5.1777,-5.1875,-5.2094,-5.2109,-5.2124,-5.2245,-5.2277,-5.2305,0,0,0,0,0,0,-5.1325,-5.1355,-5.1422,-5.1457,-5.1483,-5.1668,-5.1543,-5.1541,-5.1585,-5.1573,-5.1613,-5.1614,-5.1595,-5.1737,-5.176,-5.1854,-5.1679,-5.21,-5.2113,-5.2125,-5.2256,-5.2283,-5.2305,0,0,0,0,0,-5.1333,-5.1357,-5.1548,-5.1455,-5.1477,-5.1479,-5.1538,-5.1534,-5.1568,-5.158,-5.1579,-5.1546,-5.1598,-5.1616,-5.1751,-5.1844,-5.1663,-5.1672,-5.2109,-5.2119,-5.2128,-5.2269,0,0,0,0,0,0,-5.1338,-5.1355,-5.1552,-5.1558,-5.1398,-5.1468,-5.1477,-5.1529,-5.1572,-5.1573,-5.151,-5.15,-5.1603,-5.1615,-5.1629,-5.1842,-5.165,-5.1659,-5.1665,-5.2116,-5.2124,-5.2132,0,0,0,0,0,0,-5.1341,-5.136,-5.1555,-5.1485,-5.1483,-5.1458,-5.1467,-5.1577,-5.1574,-5.15,-5.1492,-5.1505,-5.1582,-5.1616,-5.1626,-5.1799,-5.164,-5.1649,-5.1654,-5.1658,-5.2123,-5.2129,0,0,0,0,0,0,-5.1349,-5.1365,-5.1483,-5.1482,-5.1479,-5.1544,-5.1554,-5.1674,-5.1514,-5.1499,-5.1499,-5.1492,-5.1584,-5.1594,-5.1625,-5.1794,-5.1798,-5.164,-5.1646,-5.165,-5.1653,0,0,0,0,0,0,0,-5.1355,-5.1253,-5.1517,-5.1479,-5.1476,-5.1613,-5.1615,-5.1616,-5.1512,-5.1506,-5.15,-5.1495,-5.1592,-5.1601,-5.1611,-5.1789,0,0,-5.164,-5.1644,0,0,0,0,0,0,0,0,-5.1246,-5.1251,-5.1517,-5.1519,-5.152,-5.1613,-5.1615,-5.1616,-5.1511,-5.1507,-5.1502,-5.1497,-5.1594,-5.1602,-5.161,0,0,0,0,0,0,0,0,0,0,0,0,0,0,0,-5.1517,-5.1518,0,-5.1613,-5.1615,-5.1616,-5.1511,-5.1507,-5.1503,-5.1499,-5.1597,-5.1603,-5.1609,0,0,0,0,0,0,0,0,0,0,0,0,0,0,0,0,0,0,0,0,0,0,0,0,0,0,0,0,0,0,0,0,0,0,0,0,0,0,0,0,0,0,0,0,0,0,0,0,0,0,0,0,0,0,0,0,0,0,0,0,0,0,0,0,0,0,0,0,0]}],[{"header":{"parameterUnit":"kt","parameterCategory":2,"dx":1,"dy":1,"la1":30.253999710083008,"la2":30.299108505249023,"lo1":-89.0895004272461,"lo2":-89.04439544677734,"nx":28,"ny":28,"refTime":"2022-10-14T21:00:00:Z","depth":0,"parameterNumber":2,"parameterNumberName":"V-component_of_WINDS"},"data":[3.342,3.3455,3.3486,3.3539,3.3575,3.3617,3.364,3.3674,3.3708,3.3759,3.3793,3.3824,3.3868,3.3914,3.3951,3.3963,3.3977,3.3968,3.3984,3.3999,3.4003,3.4006,3.4001,3.397,3.397,3.3965,3.3965,3.3965,3.343,3.3467,3.3504,3.3561,3.3592,3.362,3.3666,3.369,3.3725,3.3766,3.3801,3.3847,3.3886,3.3933,3.3975,3.399,3.4004,3.3999,3.3998,3.4004,3.4021,3.4015,3.3987,3.3987,3.3987,3.3987,3.3987,3.3987,3.3457,3.3476,3.3529,3.3569,3.3605,3.3642,3.3665,3.3705,3.374,3.3789,3.3816,3.3855,3.3901,3.3964,3.3992,3.4022,3.4032,3.4035,3.4036,3.4036,3.4033,3.4037,3.403,3.403,3.403,3.4031,3.4031,0,3.3485,3.351,3.3547,3.3594,3.3625,3.3663,3.3702,3.3717,3.3776,3.3801,3.3841,3.3869,3.3922,3.3961,3.4005,3.4034,3.4062,3.4067,3.407,3.4058,3.4042,3.4051,3.4077,3.4067,3.4067,3.4068,3.4068,3.4068,3.3514,3.3533,3.3602,3.3624,3.3653,3.3687,3.3713,3.3764,3.3789,3.3844,3.3857,3.3897,3.3932,3.3988,3.4031,3.4069,3.4083,3.4076,3.4089,3.4077,3.4083,3.4082,3.4084,3.4073,3.4072,3.4071,3.4071,0,3.3528,3.3577,3.3616,3.3681,3.3698,3.3714,3.377,3.379,3.3825,3.3858,3.3868,3.3923,3.3959,3.4004,3.4053,3.4075,3.41,3.4113,3.4086,3.4091,3.4089,3.4089,3.4077,3.4078,3.411,3.411,3.411,0,3.3572,3.3594,3.3666,3.3686,3.3712,3.3763,3.3787,3.382,3.3861,3.3887,3.3927,3.395,3.4004,3.4032,3.4065,3.4093,3.4102,3.412,3.4128,3.4117,3.4114,3.4129,3.413,3.4146,3.4146,3.4146,3.4146,0,3.3588,3.3652,3.3684,3.3706,3.3777,3.3791,3.382,3.3866,3.389,3.3929,3.3945,3.3984,3.4006,3.4036,3.4077,3.4084,3.4112,3.413,3.4131,3.413,3.4134,3.4133,3.4112,3.4146,3.4146,3.4146,3.4146,0,3.363,3.3671,3.371,3.3771,3.3785,3.3805,3.385,3.3878,3.3923,3.3945,3.3975,3.4007,3.4035,3.405,3.409,3.4087,3.4106,3.4126,3.4127,3.4132,3.4147,3.4129,3.4105,3.4104,3.4137,3.4137,3.4137,0,3.3636,3.3688,3.3733,3.3768,3.3798,3.3844,3.3867,3.3906,3.3938,3.3967,3.4002,3.4033,3.4054,3.407,3.4084,3.412,3.4123,3.4121,3.4159,3.416,3.4147,3.4125,3.411,3.4105,3.4136,3.4136,3.4136,0,3.3646,3.3733,3.3736,3.3764,3.3826,3.385,3.3876,3.392,3.3938,3.3976,3.3999,3.4043,3.4061,3.4086,3.4116,3.4127,3.4122,3.4144,3.4146,3.4139,3.414,3.4126,3.4125,3.4139,3.4139,3.4139,3.4136,0,3.37,3.3733,3.3743,3.3802,3.3829,3.3852,3.3903,3.3924,3.3951,3.3984,3.4017,3.4059,3.4101,3.4111,3.4136,3.4149,3.4154,3.4171,3.4188,3.4173,3.4173,3.4174,3.4184,3.4185,3.4186,3.4186,0,0,3.3693,3.374,3.3788,3.3816,3.3842,3.3888,3.391,3.3939,3.3996,3.4012,3.4023,3.4091,3.4124,3.4158,3.4158,3.4174,3.418,3.4183,3.418,3.4179,3.4178,3.4178,3.4177,3.4187,3.4188,3.4188,3.4188,0,3.3724,3.376,3.3782,3.3815,3.3867,3.3902,3.3907,3.3965,3.3987,3.402,3.4056,3.4081,3.4133,3.4164,3.4186,3.4181,3.4205,3.4189,3.4171,3.4185,3.4183,3.4182,3.418,3.4179,3.419,3.419,3.419,0,3.3743,3.3787,3.3803,3.3864,3.3897,3.3926,3.3958,3.3987,3.4008,3.4054,3.4086,3.4115,3.4158,3.4185,3.4198,3.4207,3.4225,3.4227,3.4224,3.4226,3.4241,3.4239,3.4237,3.4263,3.4263,3.4263,0,0,3.3762,3.3793,3.3855,3.3874,3.3893,3.3945,3.3965,3.3994,3.4035,3.4051,3.4088,3.4125,3.4156,3.4175,3.4207,3.4228,3.4241,3.4234,3.4231,3.4228,3.4228,3.4242,3.424,3.4263,3.4263,3.4263,0,0,3.377,3.3845,3.3866,3.3895,3.3934,3.3995,3.4004,3.403,3.4064,3.4066,3.4114,3.4126,3.4151,3.4177,3.4176,3.4214,3.423,3.4231,3.4196,3.4192,3.4189,3.4181,3.4211,0,0,0,0,0,3.3828,3.3836,3.3855,3.3867,3.3942,3.3985,3.3995,3.4036,3.4048,3.4054,3.409,3.4115,3.4187,3.4187,3.4197,3.4198,3.4267,3.4266,3.4266,3.4225,3.4221,3.4217,0,0,0,0,0,0,3.3833,3.3848,3.3855,3.3915,3.3933,3.3985,3.4013,3.4025,3.4048,3.4053,3.4107,3.4116,3.4151,3.4184,3.4192,3.4193,3.4209,3.4267,3.4266,3.4266,3.4224,3.422,3.4217,0,0,0,0,0,3.3838,3.385,3.396,3.3916,3.3931,3.3988,3.4013,3.4023,3.4042,3.4097,3.4107,3.4071,3.415,3.416,3.4189,3.4188,3.4203,3.4206,3.4266,3.4266,3.4265,3.4222,0,0,0,0,0,0,3.3841,3.3858,3.3964,3.397,3.3916,3.3986,3.3999,3.4022,3.4085,3.4096,3.4063,3.4066,3.4149,3.4157,3.4164,3.4184,3.4198,3.4202,3.4203,3.4266,3.4266,3.4265,0,0,0,0,0,0,3.3852,3.3863,3.3967,3.3965,3.3972,3.3984,3.3995,3.4026,3.4085,3.4048,3.4053,3.4064,3.4137,3.4155,3.4161,3.4206,3.4195,3.4198,3.42,3.4201,3.4266,3.4265,0,0,0,0,0,0,3.3857,3.3867,3.3964,3.3969,3.3974,3.4045,3.4011,3.4085,3.4086,3.4044,3.4088,3.4088,3.4134,3.4141,3.4158,3.4201,3.4205,3.4195,3.4197,3.4198,3.4199,0,0,0,0,0,0,0,3.3862,3.3789,3.3928,3.3972,3.3976,3.4026,3.4028,3.4029,3.4087,3.4087,3.4087,3.4088,3.4178,3.4181,3.4185,3.4197,0,0,3.4195,3.4196,0,0,0,0,0,0,0,0,3.3786,3.3788,3.3929,3.393,3.3931,3.4026,3.4028,3.4029,3.4087,3.4087,3.4087,3.4088,3.4179,3.4182,3.4184,0,0,0,0,0,0,0,0,0,0,0,0,0,0,0,3.3929,3.393,0,3.4027,3.4028,3.4029,3.4087,3.4087,3.4087,3.4088,3.418,3.4182,3.4184,0,0,0,0,0,0,0,0,0,0,0,0,0,0,0,0,0,0,0,0,0,0,0,0,0,0,0,0,0,0,0,0,0,0,0,0,0,0,0,0,0,0,0,0,0,0,0,0,0,0,0,0,0,0,0,0,0,0,0,0,0,0,0,0,0,0,0,0,0]}]]]